• In Hungary
  • List of Countries
  • For 7 days
  • Water Temperature
  • Satellite Maps
  • Weather Map
  • News
  • Weather Widgets
  • user-avatar
    Login

    Hourly Weather Domaczka

    Today, 26 September, Wednesday

    Time Temperature Precipitation Wind Pressure Humidity
    00:00 +2°C° 0 mm 1 mps 719 mmHg 81%
    01:00 +2°C° 0 mm 1 mps 719 mmHg 84%
    02:00 +2°C° 0 mm 1 mps 719 mmHg 84%
    03:00 +2°C° 0 mm 1 mps 719 mmHg 85%
    04:00 +2°C° 0 mm 1 mps 719 mmHg 85%
    05:00 +1°C° 0 mm 2 mps 719 mmHg 82%
    06:00 +2°C° 0 mm 2 mps 719 mmHg 79%
    07:00 +3°C° 0 mm 2 mps 719 mmHg 75%
    08:00 +5°C° 0 mm 2 mps 719 mmHg 66%
    09:00 +7°C° 0 mm 2 mps 719 mmHg 56%
    10:00 +9°C° 0 mm 2 mps 719 mmHg 46%
    11:00 +10°C° 0 mm 3 mps 719 mmHg 44%
    12:00 +11°C° 0 mm 3 mps 719 mmHg 41%
    13:00 +12°C° 0 mm 3 mps 718 mmHg 39%
    14:00 +12°C° 0 mm 3 mps 718 mmHg 41%
    15:00 +11°C° 0 mm 3 mps 717 mmHg 44%
    16:00 +11°C° 0 mm 3 mps 717 mmHg 47%
    17:00 +10°C° 0 mm 3 mps 716 mmHg 50%
    18:00 +9°C° 0 mm 3 mps 716 mmHg 54%
    19:00 +8°C° 0 mm 3 mps 716 mmHg 57%
    20:00 +8°C° 0 mm 3 mps 716 mmHg 57%
    21:00 +7°C° 0 mm 3 mps 715 mmHg 58%
    22:00 +6°C° 0 mm 4 mps 715 mmHg 58%
    23:00 +5°C° 0 mm 4 mps 715 mmHg 57%

    Tomorrow, 27 September, Thursday

    Time Temperature Precipitation Wind Pressure Humidity
    00:00 +5°C° 0 mm 4 mps 715 mmHg 55%
    01:00 +5°C° 0 mm 4 mps 715 mmHg 54%
    02:00 +5°C° 0 mm 3 mps 714 mmHg 54%
    03:00 +5°C° 0 mm 3 mps 714 mmHg 54%
    04:00 +5°C° 0 mm 3 mps 714 mmHg 54%
    05:00 +7°C° 0 mm 3 mps 714 mmHg 54%
    06:00 +8°C° 0 mm 3 mps 714 mmHg 53%
    07:00 +8°C° 0 mm 3 mps 714 mmHg 53%
    08:00 +9°C° 0 mm 3 mps 714 mmHg 53%
    09:00 +10°C° 0 mm 3 mps 714 mmHg 53%
    10:00 +12°C° 0 mm 3 mps 714 mmHg 53%
    11:00 +13°C° 0 mm 3 mps 714 mmHg 54%
    12:00 +14°C° 0 mm 3 mps 714 mmHg 55%
    13:00 +16°C° 0 mm 3 mps 714 mmHg 57%
    14:00 +17°C° 0 mm 3 mps 714 mmHg 59%
    15:00 +17°C° 0 mm 3 mps 713 mmHg 61%
    16:00 +17°C° 0 mm 2 mps 713 mmHg 63%
    17:00 +16°C° 0 mm 2 mps 713 mmHg 69%
    18:00 +14°C° 0 mm 2 mps 712 mmHg 75%
    19:00 +12°C° 0 mm 2 mps 712 mmHg 81%
    20:00 +12°C° 0 mm 2 mps 712 mmHg 82%
    21:00 +12°C° 0 mm 2 mps 711 mmHg 83%
    22:00 +10°C° 0 mm 2 mps 711 mmHg 84%
    23:00 +10°C° 0 mm 2 mps 710 mmHg 84%

    Day after tomorrow, 28 September, Friday

    Time Temperature Precipitation Wind Pressure Humidity
    00:00 +10°C° 0 mm 2 mps 710 mmHg 84%
    01:00 +10°C° 0 mm 2 mps 709 mmHg 84%
    02:00 +10°C° 0 mm 3 mps 709 mmHg 84%
    03:00 +10°C° 0 mm 3 mps 708 mmHg 84%
    04:00 +9°C° 0 mm 3 mps 708 mmHg 84%
    05:00 +10°C° 0 mm 3 mps 708 mmHg 81%
    06:00 +10°C° 0 mm 3 mps 708 mmHg 78%
    07:00 +11°C° 0 mm 3 mps 708 mmHg 76%
    08:00 +13°C° 0 mm 3 mps 708 mmHg 66%
    09:00 +15°C° 0 mm 4 mps 708 mmHg 57%
    10:00 +18°C° 0 mm 4 mps 708 mmHg 48%
    11:00 +18°C° 0 mm 4 mps 708 mmHg 46%
    12:00 +19°C° 0 mm 4 mps 708 mmHg 45%
    13:00 +19°C° 0 mm 4 mps 707 mmHg 43%
    14:00 +18°C° 0 mm 4 mps 707 mmHg 46%
    15:00 +18°C° 0 mm 3 mps 707 mmHg 50%
    16:00 +17°C° 0 mm 3 mps 707 mmHg 53%
    17:00 +14°C° 0 mm 3 mps 707 mmHg 63%
    18:00 +12°C° 0 mm 3 mps 707 mmHg 72%
    19:00 +10°C° 0 mm 2 mps 707 mmHg 81%
    20:00 +10°C° 0 mm 2 mps 707 mmHg 81%
    21:00 +10°C° 0 mm 2 mps 707 mmHg 81%
    22:00 +10°C° 0 mm 2 mps 707 mmHg 81%
    23:00 +9°C° 0.1 mm 2 mps 708 mmHg 81%

    29 September, Saturday

    Time Temperature Precipitation Wind Pressure Humidity
    00:00 +9°C° 0.1 mm 2 mps 708 mmHg 81%
    01:00 +9°C° 0.1 mm 2 mps 708 mmHg 81%
    02:00 +8°C° 0.2 mm 2 mps 708 mmHg 81%
    03:00 +8°C° 0.2 mm 2 mps 708 mmHg 82%
    04:00 +7°C° 0.2 mm 2 mps 708 mmHg 83%
    05:00 +7°C° 0.2 mm 2 mps 708 mmHg 83%
    06:00 +7°C° 0.2 mm 2 mps 709 mmHg 83%
    07:00 +5°C° 0.2 mm 3 mps 709 mmHg 83%
    08:00 +7°C° 0.1 mm 3 mps 710 mmHg 76%
    09:00 +7°C° 0.1 mm 4 mps 710 mmHg 70%
    10:00 +8°C° 0.1 mm 4 mps 711 mmHg 63%
    11:00 +9°C° 0.1 mm 5 mps 711 mmHg 58%
    12:00 +9°C° 0.1 mm 5 mps 711 mmHg 54%
    13:00 +10°C° 0.1 mm 5 mps 711 mmHg 49%
    14:00 +9°C° 0 mm 5 mps 711 mmHg 48%
    15:00 +10°C° 0 mm 4 mps 711 mmHg 47%
    16:00 +10°C° 0 mm 4 mps 711 mmHg 46%
    17:00 +8°C° 0 mm 4 mps 712 mmHg 50%
    18:00 +7°C° 0 mm 3 mps 712 mmHg 54%
    19:00 +6°C° 0 mm 2 mps 712 mmHg 58%
    20:00 +5°C° 0 mm 2 mps 712 mmHg 61%
    21:00 +5°C° 0 mm 2 mps 713 mmHg 63%
    22:00 +4°C° 0 mm 2 mps 713 mmHg 66%
    23:00 +4°C° 0 mm 2 mps 713 mmHg 68%

    30 September, Sunday

    Time Temperature Precipitation Wind Pressure Humidity
    00:00 +4°C° 0 mm 1 mps 713 mmHg 69%
    01:00 +4°C° 0 mm 1 mps 712 mmHg 71%
    02:00 +3°C° 0 mm 1 mps 712 mmHg 72%
    03:00 +3°C° 0 mm 1 mps 712 mmHg 74%
    04:00 +3°C° 0 mm 1 mps 712 mmHg 75%
    05:00 +3°C° 0 mm 1 mps 712 mmHg 73%
    06:00 +3°C° 0 mm 2 mps 712 mmHg 71%
    07:00 +3°C° 0 mm 2 mps 712 mmHg 69%
    08:00 +5°C° 0 mm 2 mps 712 mmHg 61%
    09:00 +7°C° 0 mm 3 mps 712 mmHg 52%
    10:00 +10°C° 0 mm 3 mps 712 mmHg 44%
    11:00 +11°C° 0 mm 3 mps 712 mmHg 40%
    12:00 +12°C° 0 mm 3 mps 711 mmHg 37%
    13:00 +14°C° 0 mm 2 mps 711 mmHg 34%
    14:00 +13°C° 0 mm 2 mps 710 mmHg 37%
    15:00 +13°C° 0 mm 2 mps 710 mmHg 40%
    16:00 +13°C° 0 mm 2 mps 709 mmHg 43%
    17:00 +10°C° 0 mm 2 mps 709 mmHg 49%
    18:00 +8°C° 0 mm 2 mps 708 mmHg 55%
    19:00 +6°C° 0 mm 2 mps 708 mmHg 62%
    20:00 +5°C° 0 mm 2 mps 708 mmHg 64%
    21:00 +5°C° 0 mm 2 mps 707 mmHg 65%
    22:00 +5°C° 0 mm 2 mps 707 mmHg 67%
    23:00 +5°C° 0 mm 2 mps 706 mmHg 68%

    1 October, Monday

    Time Temperature Precipitation Wind Pressure Humidity
    00:00 +4°C° 0 mm 2 mps 706 mmHg 68%
    01:00 +5°C° 0 mm 1 mps 706 mmHg 69%
    02:00 +4°C° 0 mm 2 mps 705 mmHg 70%
    03:00 +5°C° 0 mm 2 mps 705 mmHg 71%
    04:00 +5°C° 0 mm 2 mps 704 mmHg 72%
    05:00 +5°C° 0 mm 2 mps 704 mmHg 72%
    06:00 +6°C° 0 mm 2 mps 704 mmHg 72%
    07:00 +7°C° 0 mm 2 mps 704 mmHg 72%
    08:00 +9°C° 0 mm 2 mps 704 mmHg 66%
    09:00 +11°C° 0 mm 3 mps 704 mmHg 60%
    10:00 +14°C° 0 mm 3 mps 704 mmHg 55%
    11:00 +16°C° 0 mm 3 mps 703 mmHg 53%
    12:00 +16°C° 0 mm 3 mps 703 mmHg 51%
    13:00 +17°C° 0 mm 3 mps 703 mmHg 49%
    14:00 +17°C° 0 mm 3 mps 702 mmHg 52%
    15:00 +16°C° 0 mm 2 mps 702 mmHg 55%
    16:00 +16°C° 0 mm 2 mps 702 mmHg 58%
    17:00 +14°C° 0 mm 2 mps 702 mmHg 63%
    18:00 +13°C° 0 mm 2 mps 702 mmHg 68%
    19:00 +12°C° 0 mm 2 mps 702 mmHg 72%
    20:00 +11°C° 0 mm 1 mps 702 mmHg 74%
    21:00 +11°C° 0 mm 1 mps 702 mmHg 75%
    22:00 +11°C° 0 mm 1 mps 702 mmHg 76%
    23:00 +11°C° 0 mm 1 mps 702 mmHg 77%
    Show more